SAS1556 EHAM-ESSA

Flight info

Callsign SAS1556
Flight time N/A
Altitude 37000
Route ANDIK N873 HUNQI DCT DOSUR DCT BEVUM DCT MIKNA N851 PELUP Z226 NILUG
Aircraft A320/M-SDE3FGHIJ1RWXYZ/ALB1

Departure

Time 2026-05-06 16:07
Airport Amsterdam Airport Schiphol (EHAM)

Arrival

Time N/A
Airport Stockholm-Arlanda Airport (ESSA)
Time Latitude Longitude Altitude Speed Heading
2026-05-06 15:24 52.30540 4.76521 -1 ft 0 kts 58°
2026-05-06 15:53 52.30533 4.76503 -1 ft 4 kts 58°
2026-05-06 15:53 52.30520 4.76465 -1 ft 4 kts 75°
2026-05-06 15:53 52.30520 4.76433 -1 ft 2 kts 135°
2026-05-06 15:54 52.30521 4.76431 -1 ft 0 kts 136°
2026-05-06 15:57 52.30516 4.76433 -1 ft 3 kts 161°
2026-05-06 15:57 52.30473 4.76470 -1 ft 11 kts 147°
2026-05-06 15:57 52.30387 4.76559 -1 ft 17 kts 148°
2026-05-06 15:57 52.30372 4.76722 -1 ft 18 kts 57°
2026-05-06 15:58 52.30441 4.76904 -1 ft 20 kts 58°
2026-05-06 15:58 52.30507 4.77074 -1 ft 15 kts 57°
2026-05-06 15:58 52.30566 4.77229 -1 ft 17 kts 58°
2026-05-06 15:58 52.30630 4.77396 -1 ft 16 kts 58°
2026-05-06 15:59 52.30735 4.77459 -1 ft 18 kts
2026-05-06 15:59 52.30869 4.77471 -1 ft 20 kts
2026-05-06 15:59 52.31015 4.77485 -1 ft 22 kts
2026-05-06 15:59 52.31168 4.77498 -1 ft 20 kts
2026-05-06 16:00 52.31298 4.77480 -1 ft 19 kts 332°
2026-05-06 16:00 52.31397 4.77314 -1 ft 22 kts 310°
2026-05-06 16:00 52.31482 4.77101 -1 ft 24 kts 277°
2026-05-06 16:00 52.31476 4.76828 -1 ft 22 kts 267°
2026-05-06 16:01 52.31467 4.76566 -1 ft 24 kts 266°
2026-05-06 16:01 52.31457 4.76290 -1 ft 25 kts 266°
2026-05-06 16:01 52.31447 4.76023 -1 ft 21 kts 266°
2026-05-06 16:01 52.31438 4.75771 -1 ft 23 kts 266°
2026-05-06 16:02 52.31428 4.75496 -1 ft 25 kts 266°
2026-05-06 16:02 52.31418 4.75210 -1 ft 24 kts 267°
2026-05-06 16:02 52.31410 4.74976 -1 ft 21 kts 267°
2026-05-06 16:02 52.31402 4.74723 -1 ft 23 kts 267°
2026-05-06 16:03 52.31394 4.74454 -1 ft 22 kts 266°
2026-05-06 16:03 52.31386 4.74231 -1 ft 19 kts 267°
2026-05-06 16:03 52.31340 4.74135 -1 ft 8 kts 188°
2026-05-06 16:03 52.31275 4.74128 -1 ft 11 kts 184°
2026-05-06 16:04 52.31179 4.74119 -1 ft 17 kts 183°
2026-05-06 16:04 52.31045 4.74107 -1 ft 22 kts 183°
2026-05-06 16:04 52.30872 4.74091 -1 ft 27 kts 183°
2026-05-06 16:04 52.30696 4.74076 -1 ft 23 kts 183°
2026-05-06 16:05 52.30528 4.74061 -1 ft 24 kts 183°
2026-05-06 16:05 52.30410 4.73994 -1 ft 15 kts 249°
2026-05-06 16:05 52.30408 4.73925 -1 ft 1 kts 271°
2026-05-06 16:05 52.30408 4.73909 -2 ft 0 kts 271°
2026-05-06 16:06 52.30408 4.73889 -2 ft 4 kts 273°
2026-05-06 16:06 52.30412 4.73804 -3 ft 10 kts 274°
2026-05-06 16:06 52.30457 4.73761 -3 ft 8 kts
2026-05-06 16:06 52.30517 4.73766 -3 ft 14 kts
2026-05-06 16:07 52.30761 4.73792 0 ft 67 kts
2026-05-06 16:07 52.31430 4.73852 -2 ft 124 kts
2026-05-06 16:07 52.32438 4.73939 107 ft 157 kts
2026-05-06 16:07 52.33519 4.74050 776 ft 156 kts
2026-05-06 16:08 52.34564 4.74527 1390 ft 161 kts 24°
2026-05-06 16:08 52.35654 4.75267 1684 ft 184 kts 25°
2026-05-06 16:08 52.36922 4.76175 2021 ft 211 kts 25°
2026-05-06 16:08 52.38251 4.77428 2548 ft 231 kts 44°
2026-05-06 16:09 52.39359 4.79408 3361 ft 240 kts 48°
2026-05-06 16:09 52.40524 4.81401 4310 ft 244 kts 46°
2026-05-06 16:09 52.41725 4.83407 5264 ft 248 kts 45°
2026-05-06 16:09 52.43017 4.85357 5733 ft 256 kts 33°
2026-05-06 16:10 52.44700 4.86267 5887 ft 260 kts
2026-05-06 16:10 52.46518 4.86147 6123 ft 265 kts 359°
2026-05-06 16:10 52.48351 4.85957 7071 ft 264 kts 358°
2026-05-06 16:10 52.50198 4.85767 7936 ft 269 kts 357°
2026-05-06 16:11 52.52081 4.85805 8758 ft 273 kts
2026-05-06 16:11 52.53906 4.86732 9603 ft 278 kts 26°
2026-05-06 16:11 52.55511 4.88555 10257 ft 289 kts 42°
2026-05-06 16:11 52.56468 4.90341 10431 ft 306 kts 51°
2026-05-06 16:12 52.57823 4.93186 10785 ft 324 kts 50°
2026-05-06 16:12 52.59223 4.96137 11420 ft 331 kts 51°
2026-05-06 16:12 52.60407 4.98624 11972 ft 335 kts 51°
2026-05-06 16:12 52.60626 4.99083 12075 ft 336 kts 50°
2026-05-06 16:13 52.62083 5.02136 12714 ft 342 kts 50°
2026-05-06 16:13 52.63563 5.05235 13415 ft 347 kts 50°
2026-05-06 16:13 52.65067 5.08382 14024 ft 353 kts 50°
2026-05-06 16:13 52.66595 5.11582 14639 ft 357 kts 50°
2026-05-06 16:14 52.68137 5.14815 15248 ft 362 kts 50°
2026-05-06 16:14 52.69705 5.18107 15822 ft 367 kts 50°
2026-05-06 16:14 52.71281 5.21424 16445 ft 370 kts 50°
2026-05-06 16:14 52.72857 5.24745 16990 ft 375 kts 50°
2026-05-06 16:15 52.74471 5.28152 17661 ft 378 kts 50°
2026-05-06 16:15 52.76097 5.31591 18236 ft 383 kts 50°
2026-05-06 16:15 52.77744 5.35074 18779 ft 386 kts 51°
2026-05-06 16:15 52.79405 5.38584 19334 ft 391 kts 50°